Home   Weather   Atascadero   Past weeks

Flag for USA Past Weather in Atascadero, California, USA — Yesterday and Last 2 Weeks

Now
63 °F

Clear.


Feels Like: 63 °F
Forecast: 51 / 81 °F
Wind: 7 mph from Northwest

Location: Paso Robles Municipal Airport

Current Time: Sep 29, 2016 at 11:40:37 PM

Latest Report: Sep 29, 2016 at 10:53 PM


Visibility: 10 mi

Pressure: 30.05 "Hg

Humidity: 52%

Dew Point: 45 °F

Location of AtascaderoLocation

Past Weather in Atascadero — Graph

°F

Atascadero Temperature Yesterday

Maximum temperature yesterday: 90 °F (at 12:53 PM)
Minimum temperature yesterday: 53 °F (at 5:53 AM)
Average temperature yesterday: 70 °F

High & Low Weather Summary for the Past Weeks

 TemperatureHumidityPressure
High104 °F (Sep 18, 2:53 PM)92% (Sep 23, 6:53 AM)30.14 "Hg (Sep 23, 6:53 AM)
Low42 °F (Sep 23, 6:53 AM)5% (Sep 18, 2:53 PM)29.77 "Hg (Sep 27, 4:53 PM)
Average70 °F39%29.96 "Hg
* Reported Sep 14 9:53 PM — Sep 29 9:53 PM, Atascadero, Weather by CustomWeather, © 2016

Note: Actual official high and low records may vary slightly from our data, if they occured in-between our weather recording intervals... More about our weather records

Advertising

Atascadero Weather History for the Previous 24 Hours

Scroll right to see more
 ConditionsComfort  
Time TempWeatherWind HumidityBarometerVisibility
9:53 PM
Thu, Sep 29
67 °FClear.8 mph36%30.04 "Hg10 mi
8:53 PM69 °FClear.7 mph32%30.03 "Hg10 mi
7:53 PM74 °FClear.10 mph28%30.01 "Hg10 mi
6:53 PM78 °FClear.9 mph28%30.00 "Hg10 mi
5:53 PM83 °FSunny.14 mph27%29.98 "Hg10 mi
4:53 PM87 °FSunny.15 mph21%29.98 "Hg10 mi
3:53 PM89 °FSunny.15 mph19%29.98 "Hg10 mi
2:53 PM91 °FSunny.12 mph19%29.99 "Hg10 mi
1:53 PM91 °FSunny.13 mph17%29.99 "Hg10 mi
12:53 PM89 °FSunny.9 mph19%30.01 "Hg10 mi
11:53 AM81 °FSunny.No wind29%30.04 "Hg10 mi
10:53 AM72 °FSunny.No wind40%30.06 "Hg10 mi
9:53 AM64 °FSunny.No wind56%30.06 "Hg10 mi
8:53 AM58 °FSunny.No wind62%30.06 "Hg10 mi
7:53 AM52 °FSunny.No wind72%30.04 "Hg10 mi
6:53 AM50 °FClear.No wind74%30.03 "Hg10 mi
5:53 AM50 °FClear.No wind71%30.01 "Hg10 mi
4:53 AM52 °FClear.No wind72%29.98 "Hg10 mi
3:53 AM52 °FClear.No wind72%29.97 "Hg10 mi
2:53 AM52 °FClear.3 mph69%29.97 "Hg10 mi
1:53 AM54 °FClear.3 mph67%29.98 "Hg10 mi
12:53 AM58 °FClear.No wind72%29.97 "Hg10 mi
11:53 PM
Wed, Sep 28
61 °FClear.3 mph60%29.97 "Hg10 mi
Weather by CustomWeather, © 2016

See weather overviewHow to use our weather pages